[[{"header":{"parameterUnit":"m.s-1","parameterCategory":1,"la1":30.2991,"la2":30.254,"lo1":-89.0895,"lo2":-89.0444,"dy":0.0017,"dx":0.0017,"nx":28,"ny":28,"refTime":"2024-10-12T03:00:00:Z","depth":0,"parameterNumber":2,"parameterNumberName":"U-component_of_WINDS"},"data":[0,0,0,0,0,0,0,0,0,0,0,0,0,0,0,0,0,0,0,0,0,0,0,0,0,0,0,0,0,0,0,0,0,0,0,0,0,0,0,0,0,0,0,0,0,0,0,0,0,0,0,0,0,0,0,0,0,0,1.904,1.9041,0,1.9133,1.9135,1.9136,1.9141,1.914,1.9139,1.9138,1.9232,1.9236,1.9239,0,0,0,0,0,0,0,0,0,0,0,0,0,1.8861,1.8865,1.904,1.9041,1.9042,1.9133,1.9135,1.9136,1.9142,1.914,1.9139,1.9138,1.9231,1.9235,1.9239,0,0,0,0,0,0,0,0,0,0,0,0,0,1.8945,1.8866,1.9039,1.9056,1.9058,1.9133,1.9135,1.9136,1.9142,1.914,1.9139,1.9137,1.923,1.9235,1.924,1.9304,0,0,1.9256,1.9258,0,0,0,0,0,0,0,0,1.8941,1.8952,1.9052,1.9055,1.9058,1.9124,1.9106,1.9192,1.9142,1.911,1.9138,1.9136,1.9197,1.9205,1.9226,1.9308,1.9312,1.9256,1.926,1.9262,1.9263,0,0,0,0,0,0,0,1.8935,1.8948,1.9077,1.9054,1.9057,1.9057,1.9067,1.9123,1.9161,1.9113,1.9113,1.9125,1.9199,1.9221,1.9228,1.9314,1.9256,1.9261,1.9264,1.9266,1.945,1.9451,0,0,0,0,0,0,1.8926,1.8943,1.9074,1.908,1.8994,1.9062,1.9073,1.9104,1.9161,1.9168,1.9126,1.9124,1.9213,1.9222,1.9232,1.9308,1.9262,1.9267,1.927,1.9448,1.945,1.9452,0,0,0,0,0,0,1.8922,1.8938,1.907,1.9011,1.9028,1.9067,1.9102,1.9107,1.913,1.9171,1.9177,1.9142,1.9212,1.9224,1.9285,1.9312,1.9269,1.9274,1.9446,1.9449,1.9451,1.9463,0,0,0,0,0,0,1.8917,1.8936,1.8962,1.9012,1.9031,1.9123,1.9103,1.911,1.9139,1.9138,1.9188,1.9194,1.9212,1.9278,1.9291,1.9318,1.9278,1.9444,1.9447,1.945,1.946,1.9466,1.947,0,0,0,0,0,1.8911,1.8962,1.8964,1.8979,1.9065,1.9125,1.9136,1.9155,1.9141,1.9166,1.9192,1.9193,1.9307,1.9284,1.9298,1.9328,1.9442,1.9446,1.945,1.9458,1.9464,1.947,0,0,0,0,0,0,1.8914,1.8969,1.8971,1.904,1.9078,1.9126,1.9158,1.9162,1.9204,1.9201,1.9223,1.9234,1.9294,1.9317,1.9291,1.9391,1.9373,1.938,1.9374,1.938,1.9385,1.9377,1.9282,0,0,0,0,0,1.8923,1.8968,1.9013,1.907,1.9088,1.912,1.9147,1.9159,1.9198,1.9214,1.9245,1.9282,1.9326,1.9355,1.9398,1.9464,1.9473,1.9491,1.9496,1.95,1.9505,1.9539,1.9547,1.9465,1.9465,1.9465,0,0,1.8941,1.8977,1.9004,1.9071,1.9102,1.9146,1.9133,1.9182,1.9215,1.9221,1.928,1.9304,1.9347,1.941,1.9439,1.9431,1.953,1.9505,1.9508,1.9511,1.9544,1.9552,1.9558,1.9468,1.9467,1.9467,0,0,1.8998,1.903,1.9079,1.911,1.9156,1.9177,1.9188,1.9235,1.9251,1.9311,1.9316,1.9355,1.9431,1.946,1.9486,1.955,1.9551,1.9564,1.9589,1.9622,1.9628,1.9634,1.9655,1.9662,1.9569,1.9569,1.9569,0,1.9014,1.9083,1.9104,1.9152,1.918,1.9188,1.9237,1.9265,1.9323,1.9341,1.9332,1.9426,1.9456,1.9524,1.954,1.9561,1.9573,1.9558,1.9626,1.9632,1.9637,1.9657,1.9665,1.957,1.957,1.957,1.957,0,1.91,1.9148,1.9182,1.9237,1.9269,1.9317,1.9344,1.9374,1.9382,1.9403,1.9462,1.9498,1.9547,1.9564,1.9574,1.9634,1.9627,1.9621,1.9603,1.9646,1.9665,1.9673,1.9572,1.9572,1.9571,1.9571,0,0,1.9161,1.9226,1.9238,1.9262,1.9313,1.9349,1.9397,1.9445,1.9469,1.9508,1.9547,1.961,1.9605,1.9633,1.9645,1.9674,1.972,1.9665,1.9666,1.9672,1.9786,1.9788,1.9797,1.9722,1.9723,1.9725,1.9781,0,1.9221,1.9307,1.9326,1.9399,1.9441,1.9449,1.9489,1.9524,1.9544,1.9582,1.9604,1.9648,1.9639,1.9655,1.9684,1.9708,1.9743,1.9705,1.9756,1.9758,1.9743,1.9808,1.9811,1.9863,1.9789,1.9791,1.9792,0,1.9303,1.9344,1.9421,1.9463,1.9482,1.9519,1.9563,1.96,1.9638,1.9651,1.9681,1.969,1.9738,1.9718,1.9782,1.9756,1.9778,1.9793,1.9795,1.9799,1.9776,1.9812,1.9881,1.9888,1.9804,1.9803,1.9802,0,1.9337,1.9411,1.9466,1.9487,1.9539,1.9564,1.9586,1.9623,1.965,1.9689,1.9706,1.975,1.9773,1.9806,1.9825,1.9809,1.9887,1.987,1.9897,1.9896,1.9912,1.9911,1.9984,1.9929,1.9929,1.9929,1.9929,0,1.9401,1.9447,1.9481,1.9515,1.9566,1.9587,1.9637,1.9659,1.9691,1.9728,1.9737,1.9771,1.9796,1.9833,1.9848,1.9898,1.9909,1.9919,1.9922,1.9917,1.9916,1.9931,1.9927,1.9931,1.9931,1.993,1.993,0,1.9447,1.9473,1.9532,1.9576,1.9588,1.9624,1.966,1.9692,1.9712,1.9758,1.977,1.9802,1.9845,1.9868,1.9923,1.9933,1.9988,1.999,1.9975,1.9976,2.0002,1.9998,2.0086,2.0097,2.0037,2.0037,2.0038,0,1.9486,1.9521,1.9569,1.9594,1.9617,1.9658,1.9685,1.9707,1.9734,1.978,1.9805,1.985,1.9886,1.9955,1.9982,2.0023,2.0025,2.0053,2.0031,2.0024,2.0023,2.002,2.0022,2.0056,2.0057,2.0057,2.0057,0,1.955,1.9561,1.96,1.9643,1.9675,1.971,1.9745,1.9765,1.9791,1.9822,1.9866,1.9895,1.995,1.9993,2.0036,2.0057,2.0061,2.0064,2.0072,2.0067,2.0055,2.006,1.9983,2.0062,2.0061,2.0061,2.0061,2.0061,1.9593,1.9623,1.9661,1.9704,1.9732,1.9763,1.9795,1.9818,1.9856,1.9903,1.9913,1.996,1.9995,2.0053,2.0076,2.0111,2.0106,2.0118,2.0121,2.0123,2.0123,2.0051,2.012,2.0119,2.0119,2.0119,2.0119,0,1.9656,1.968,1.9719,1.9767,1.98,1.9801,1.9839,1.9866,1.9907,1.994,1.9975,2.0025,2.0066,2.0096,2.0137,2.016,2.0162,2.017,2.0168,2.0172,2.0127,2.0115,2.0167,2.0167,2.0167,2.0167,2.0167,2.0167,1.9692,1.9744,1.9758,1.9823,1.9846,1.9893,1.9913,1.9942,1.9968,2.0023,2.0058,2.0077,2.0107,2.0151,2.0188,2.0195,2.0209,2.0216,2.0223,2.0181,2.0175,2.0171,2.0159,2.022,2.022,2.0265,2.0266,2.0266]},{"header":{"parameterUnit":"m.s-1","parameterCategory":1,"la1":30.2991,"la2":30.254,"lo1":-89.0895,"lo2":-89.0444,"dy":0.0017,"dx":0.0017,"nx":28,"ny":28,"refTime":"2024-10-12T03:00:00:Z","depth":0,"parameterNumber":3,"parameterNumberName":"V-component_of_WINDS"},"data":[0,0,0,0,0,0,0,0,0,0,0,0,0,0,0,0,0,0,0,0,0,0,0,0,0,0,0,0,0,0,0,0,0,0,0,0,0,0,0,0,0,0,0,0,0,0,0,0,0,0,0,0,0,0,0,0,0,0,3.8144,3.8143,0,3.8134,3.8134,3.8134,3.8062,3.806,3.8059,3.8057,3.8047,3.8048,3.805,0,0,0,0,0,0,0,0,0,0,0,0,0,3.8096,3.8097,3.8144,3.8143,3.8143,3.8134,3.8134,3.8134,3.8063,3.806,3.8058,3.8056,3.8046,3.8048,3.805,0,0,0,0,0,0,0,0,0,0,0,0,0,3.8105,3.8098,3.8144,3.8107,3.8103,3.8134,3.8134,3.8134,3.8063,3.806,3.8058,3.8055,3.8046,3.8048,3.805,3.8116,0,0,3.8056,3.8057,0,0,0,0,0,0,0,0,3.8104,3.8106,3.8112,3.8109,3.8105,3.8097,3.8114,3.8128,3.8064,3.8078,3.8057,3.8054,3.8066,3.8066,3.807,3.8115,3.8115,3.8056,3.8058,3.8058,3.8059,0,0,0,0,0,0,0,3.8104,3.8106,3.814,3.8112,3.8108,3.8089,3.8088,3.8116,3.8087,3.8077,3.8072,3.8071,3.8063,3.8068,3.8069,3.8115,3.8056,3.8058,3.8059,3.806,3.821,3.8212,0,0,0,0,0,0,3.8109,3.8106,3.814,3.814,3.8098,3.8092,3.809,3.8102,3.8086,3.8081,3.8074,3.8068,3.8066,3.8067,3.8068,3.8142,3.8058,3.806,3.8062,3.8207,3.821,3.8213,0,0,0,0,0,0,3.8108,3.8112,3.814,3.8122,3.8124,3.8096,3.811,3.8103,3.8108,3.8084,3.8078,3.8084,3.8064,3.8066,3.8104,3.8141,3.8061,3.8063,3.8204,3.8208,3.8212,3.8291,0,0,0,0,0,0,3.8107,3.8112,3.8138,3.8123,3.8125,3.8177,3.8112,3.8105,3.8112,3.8105,3.8092,3.8088,3.8062,3.8101,3.8106,3.8142,3.8065,3.82,3.8206,3.8211,3.8285,3.8297,3.8308,0,0,0,0,0,3.8105,3.8161,3.814,3.8144,3.8157,3.818,3.8181,3.815,3.8116,3.814,3.8124,3.8088,3.8136,3.8106,3.811,3.8148,3.8198,3.8204,3.821,3.828,3.8295,3.8308,0,0,0,0,0,0,3.8182,3.8159,3.8135,3.8188,3.8186,3.8167,3.8198,3.8167,3.8175,3.8168,3.8129,3.8127,3.817,3.8163,3.8129,3.8209,3.8161,3.8168,3.8212,3.8226,3.8237,3.8237,3.8067,0,0,0,0,0,3.8206,3.8227,3.8205,3.8253,3.8254,3.8226,3.8235,3.8211,3.8208,3.8207,3.8194,3.8191,3.8205,3.8216,3.8228,3.8284,3.8279,3.8312,3.8323,3.8333,3.8339,3.8365,3.8379,3.8234,3.8234,3.8233,0,0,3.8254,3.8243,3.8259,3.8269,3.8265,3.8286,3.8226,3.8252,3.8267,3.8211,3.8245,3.8235,3.823,3.8277,3.8297,3.8272,3.8378,3.8341,3.8348,3.8349,3.8373,3.8387,3.8399,3.8238,3.8237,3.8236,0,0,3.8351,3.8347,3.8385,3.8382,3.8376,3.8357,3.8366,3.8352,3.8343,3.8377,3.8334,3.8351,3.8377,3.8374,3.8376,3.847,3.8436,3.8475,3.8534,3.856,3.8572,3.8582,3.8612,3.8624,3.8482,3.8482,3.8482,0,3.8412,3.8443,3.8409,3.8437,3.8441,3.8391,3.8428,3.8426,3.8425,3.8429,3.8401,3.843,3.8424,3.8467,3.849,3.8494,3.8502,3.8476,3.8573,3.8582,3.8591,3.862,3.8632,3.8487,3.8486,3.8486,3.8485,0,3.8515,3.8537,3.8569,3.8568,3.8576,3.8609,3.8578,3.859,3.8565,3.8549,3.8582,3.8572,3.858,3.8589,3.8565,3.8628,3.8613,3.858,3.853,3.861,3.8636,3.8647,3.8493,3.8492,3.849,3.8489,0,0,3.8662,3.864,3.8652,3.865,3.8639,3.8654,3.8684,3.8691,3.87,3.8701,3.8723,3.8745,3.8713,3.8716,3.8691,3.8714,3.8786,3.8678,3.8677,3.8696,3.8851,3.8874,3.8888,3.8764,3.8766,3.8767,3.8851,0,3.8754,3.8803,3.8772,3.8825,3.8843,3.8795,3.882,3.8815,3.88,3.8812,3.8795,3.881,3.8769,3.8769,3.879,3.8773,3.8816,3.8767,3.8782,3.8783,3.8783,3.8902,3.8928,3.9007,3.8861,3.8863,3.8864,0,3.8868,3.8872,3.8926,3.8909,3.8915,3.8939,3.8941,3.8954,3.8947,3.8933,3.8935,3.8904,3.8929,3.8882,3.8915,3.8882,3.8887,3.8879,3.8881,3.888,3.8827,3.8902,3.9032,3.9043,3.8881,3.8879,3.8878,0,3.8966,3.8985,3.9019,3.9019,3.9,3.9017,3.901,3.9,3.9005,3.9007,3.9009,3.9015,3.9017,3.9022,3.8992,3.896,3.9028,3.8979,3.9016,3.9017,3.9032,3.9031,3.9162,3.9039,3.9039,3.9038,3.9038,0,3.907,3.9105,3.9062,3.9083,3.912,3.9084,3.9121,3.9108,3.9099,3.9116,3.9075,3.9091,3.9052,3.9064,3.9041,3.907,3.9073,3.9061,3.9054,3.9064,3.9065,3.9065,3.9058,3.9041,3.9041,3.904,3.904,0,3.9186,3.9159,3.9192,3.9171,3.9166,3.9194,3.9175,3.9193,3.9174,3.9195,3.9198,3.9169,3.918,3.9151,3.9159,3.9143,3.9185,3.9171,3.9188,3.9182,3.922,3.9216,3.9354,3.9369,3.9239,3.924,3.9241,0,3.9253,3.9278,3.9259,3.9267,3.9261,3.9275,3.928,3.9245,3.9251,3.9243,3.9261,3.9269,3.9273,3.9293,3.9272,3.9277,3.9261,3.9308,3.9261,3.9269,3.9258,3.9256,3.9257,3.9318,3.9319,3.9321,3.9322,0,3.9375,3.9359,3.9368,3.937,3.9377,3.9377,3.9375,3.9384,3.9346,3.9355,3.9365,3.9369,3.9375,3.9383,3.9383,3.9374,3.9341,3.9337,3.9345,3.9354,3.9362,3.9355,3.9212,3.9334,3.9332,3.9332,3.9331,3.933,3.9466,3.9485,3.9473,3.9483,3.9477,3.9475,3.949,3.9472,3.9481,3.9483,3.9462,3.9476,3.9466,3.9462,3.9456,3.9466,3.9444,3.9458,3.946,3.9463,3.9469,3.9362,3.9467,3.9466,3.9466,3.9466,3.9465,0,3.9583,3.9573,3.9582,3.9579,3.9586,3.9555,3.955,3.9557,3.9571,3.9564,3.9568,3.9579,3.9585,3.9564,3.9567,3.9579,3.9564,3.9581,3.9579,3.9577,3.949,3.9481,3.9593,3.9593,3.9593,3.9593,3.9593,3.9593,3.9645,3.9674,3.9657,3.9682,3.9671,3.9685,3.9684,3.9681,3.9675,3.9689,3.9694,3.968,3.9667,3.9668,3.9672,3.9665,3.9667,3.9689,3.9677,3.9596,3.9583,3.9571,3.9562,3.969,3.969,3.9763,3.9763,3.9764]}]]